Glencoe, MN

6:49 PM CDT on August 22, 2017 (GMT -0500)
Glencoe Municipal

Weather History for KGYL - February, 2013

Change the Weather History Date:

Wednesday, February 13, 2013

  Actual Average (KHCD) Record (KHCD)
Temperature  
Mean Temperature 24 °F -  
Max Temperature 35 °F 27 °F 96 °F (2005)
Min Temperature 13 °F 7 °F -18 °F (1970)
Degree Days  
Heating Degree Days 41    
Moisture  
Dew Point 23 °F    
Average Humidity 87    
Maximum Humidity 99    
Minimum Humidity 73    
Precipitation  
Precipitation 0.01 in - - ()
Sea Level Pressure  
Sea Level Pressure 29.66 in    
Wind  
Wind Speed 4 mph (SW)    
Max Wind Speed 10 mph    
Max Gust Speed -    
Visibility 9 miles    
Events Rain , Snow    
Averages and records for this station are not official NWS values.
T = Trace of Precipitation, MM = Missing Value Source: NWS Daily Summary

Daily Weather History Graph

Daily Weather History Graph

Search for Another Location

Airport or City:

Trip Planner

Search our weather history database for the weather conditions in past years. The results will help you decide how hot, cold, wet, or windy it might be!

Date:

Astronomy

Feb. 13, 2013 Rise Set
Actual Time 7:19 AM CST 5:42 PM CST
Civil Twilight 6:49 AM CST 6:12 PM CST
Nautical Twilight 6:14 AM CST 6:46 PM CST
Astronomical Twilight 5:41 AM CST 7:20 PM CST
Moon 8:37 AM CST (2/13) 9:59 PM CST (2/13)
Length of Visible Light 11h 23m
Length of Day
10h 23m
Waxing Crescent, 14% of the Moon is Illuminated
Feb 13
Waxing Crescent
Feb 17
First Quarter
Feb 25
Full
Mar 4
Last Quarter
Mar 11
New

Hourly Weather History & Observations

Time (CST) Temp. Windchill Dew Point Humidity Pressure Visibility Wind Dir Wind Speed Gust Speed Precip Events Conditions
12:16 AM 18.1 °F 10.0 °F 15.4 °F 89% 29.79 in 10.0 mi West 5.8 mph - N/A   Overcast
12:36 AM 18.3 °F 13.1 °F 15.4 °F 89% 29.79 in 10.0 mi WSW 3.5 mph - N/A   Scattered Clouds
12:56 AM 17.1 °F 11.7 °F 14.5 °F 90% 29.79 in 10.0 mi West 3.5 mph - N/A   Mostly Cloudy
1:16 AM 14.9 °F 9.2 °F 12.2 °F 89% 29.78 in 10.0 mi SW 3.5 mph - N/A   Overcast
1:36 AM 16.5 °F - 14.0 °F 90% 29.78 in 10.0 mi Calm Calm - N/A   Overcast
1:56 AM 16.7 °F 11.2 °F 14.2 °F 90% 29.78 in 10.0 mi WSW 3.5 mph - N/A   Overcast
2:16 AM 16.3 °F 9.2 °F 14.0 °F 90% 29.77 in 10.0 mi WSW 4.6 mph - N/A   Scattered Clouds
2:36 AM 14.5 °F - 12.0 °F 90% 29.78 in 10.0 mi Calm Calm - N/A   Clear
2:56 AM 13.5 °F - 11.7 °F 93% 29.77 in 10.0 mi Calm Calm - N/A   Clear
3:16 AM 14.5 °F - 12.7 °F 93% 29.77 in 10.0 mi Calm Calm - N/A   Clear
3:36 AM 15.4 °F 9.8 °F 13.5 °F 92% 29.77 in 10.0 mi SW 3.5 mph - N/A   Clear
3:56 AM 15.3 °F 9.6 °F 13.3 °F 92% 29.76 in 10.0 mi WSW 3.5 mph - N/A   Clear
4:16 AM 15.4 °F - 13.3 °F 91% 29.76 in 10.0 mi Calm Calm - N/A   Clear
4:36 AM 15.8 °F 7.2 °F 13.8 °F 92% 29.76 in 10.0 mi West 5.8 mph - N/A   Mostly Cloudy
4:56 AM 16.7 °F 9.6 °F 14.4 °F 91% 29.76 in 10.0 mi WSW 4.6 mph - N/A   Overcast
5:16 AM 17.6 °F 12.3 °F 15.3 °F 91% 29.75 in 10.0 mi SW 3.5 mph - N/A   Overcast
5:36 AM 17.6 °F 12.3 °F 15.3 °F 91% 29.75 in 10.0 mi SW 3.5 mph - N/A   Overcast
5:56 AM 18.1 °F 12.9 °F 15.6 °F 90% 29.74 in 10.0 mi SW 3.5 mph - N/A   Overcast
6:16 AM 18.1 °F 12.9 °F 15.6 °F 90% 29.72 in 10.0 mi SSW 3.5 mph - N/A   Overcast
6:36 AM 18.9 °F - 16.3 °F 90% 29.72 in 10.0 mi Calm Calm - N/A   Overcast
6:55 AM 19.2 °F 14.1 °F 16.5 °F 89% 29.72 in 10.0 mi SSW 3.5 mph - N/A   Overcast
7:16 AM 19.4 °F - 16.7 °F 89% 29.72 in 10.0 mi Calm Calm - N/A   Overcast
7:36 AM 19.4 °F 11.5 °F 17.1 °F 91% 29.72 in 10.0 mi South 5.8 mph - N/A   Overcast
7:56 AM 19.4 °F 14.3 °F 16.7 °F 89% 29.72 in 10.0 mi South 3.5 mph - N/A   Overcast
8:16 AM 19.4 °F 12.8 °F 16.7 °F 89% 29.72 in 10.0 mi South 4.6 mph - N/A   Overcast
8:36 AM 20.3 °F 11.5 °F 17.6 °F 89% 29.72 in 10.0 mi South 6.9 mph - N/A   Overcast
8:56 AM 20.3 °F 10.6 °F 17.6 °F 89% 29.71 in 10.0 mi SSW 8.1 mph - N/A   Mostly Cloudy
9:16 AM 22.3 °F 14.9 °F 18.7 °F 86% 29.71 in 10.0 mi SSW 5.8 mph - N/A   Clear
9:36 AM 23.7 °F 15.6 °F 19.6 °F 84% 29.70 in 10.0 mi SSW 6.9 mph - N/A   Clear
9:56 AM 25.3 °F 17.6 °F 20.8 °F 83% 29.70 in 10.0 mi SSW 6.9 mph - N/A   Clear
10:16 AM 27.0 °F 20.5 °F 21.7 °F 81% 29.70 in 10.0 mi SSW 5.8 mph - N/A   Clear
10:36 AM 28.9 °F 23.9 °F 22.8 °F 78% 29.70 in 7.0 mi SW 4.6 mph - N/A   Scattered Clouds
10:56 AM 29.3 °F 25.6 °F 23.0 °F 77% 29.70 in 10.0 mi SW 3.5 mph - N/A   Overcast
11:16 AM 30.6 °F - 24.3 °F 77% 29.69 in 10.0 mi Calm Calm - N/A   Overcast
11:36 AM 31.3 °F 26.6 °F 23.9 °F 74% 29.69 in 10.0 mi WSW 4.6 mph - N/A   Scattered Clouds
11:56 AM 32.0 °F 26.4 °F 24.8 °F 75% 29.68 in 10.0 mi South 5.8 mph - N/A   Scattered Clouds
12:16 PM 32.0 °F 25.6 °F 25.9 °F 78% 29.66 in 10.0 mi South 6.9 mph - N/A   Scattered Clouds
12:36 PM 32.5 °F 27.1 °F 26.2 °F 78% 29.65 in 10.0 mi SSW 5.8 mph - N/A   Scattered Clouds
12:56 PM 33.1 °F 26.9 °F 26.6 °F 77% 29.65 in 10.0 mi SSW 6.9 mph - N/A   Scattered Clouds
1:16 PM 34.0 °F 27.2 °F 27.0 °F 75% 29.65 in 10.0 mi SSW 8.1 mph - N/A   Mostly Cloudy
1:36 PM 34.7 °F 28.1 °F 26.8 °F 73% 29.64 in 10.0 mi SSW 8.1 mph - N/A   Scattered Clouds
1:56 PM 34.7 °F 28.8 °F 27.3 °F 74% 29.63 in 10.0 mi SSW 6.9 mph - N/A   Scattered Clouds
2:16 PM 34.9 °F 28.3 °F 27.9 °F 76% 29.62 in 10.0 mi SSW 8.1 mph - N/A   Clear
2:36 PM 34.9 °F 29.0 °F 28.2 °F 77% 29.62 in 10.0 mi South 6.9 mph - N/A   Mostly Cloudy
2:56 PM 35.6 °F 29.9 °F 28.2 °F 75% 29.62 in 10.0 mi SSW 6.9 mph - N/A   Overcast
3:16 PM 35.6 °F 29.2 °F 28.9 °F 77% 29.62 in 10.0 mi South 8.1 mph - N/A   Mostly Cloudy
3:36 PM 35.6 °F 29.9 °F 29.3 °F 78% 29.61 in 10.0 mi South 6.9 mph - N/A   Mostly Cloudy
3:56 PM 35.8 °F 31.9 °F 29.1 °F 77% 29.61 in 10.0 mi SSW 4.6 mph - N/A   Overcast
4:16 PM 35.1 °F 30.1 °F 30.0 °F 82% 29.61 in 10.0 mi South 5.8 mph - N/A   Overcast
4:36 PM 35.6 °F 32.8 °F 29.8 °F 80% 29.60 in 10.0 mi South 3.5 mph - N/A   Overcast
4:56 PM 35.6 °F 31.7 °F 30.0 °F 80% 29.59 in 10.0 mi South 4.6 mph - N/A   Light Drizzle
5:16 PM 35.6 °F 31.7 °F 30.2 °F 81% 29.59 in 10.0 mi SSW 4.6 mph - N/A Rain Light Rain
5:36 PM 34.7 °F 30.6 °F 30.9 °F 86% 29.59 in 7.0 mi South 4.6 mph - N/A Rain Light Rain
5:56 PM 34.7 °F 31.8 °F 31.1 °F 87% 29.58 in 10.0 mi South 3.5 mph - N/A Rain Light Rain
6:16 PM 34.2 °F 30.0 °F 31.1 °F 89% 29.59 in 10.0 mi South 4.6 mph - N/A Rain Light Rain
6:36 PM 34.0 °F - 31.1 °F 89% 29.58 in 10.0 mi Calm Calm - N/A   Light Drizzle
6:56 PM 33.4 °F 28.1 °F 31.3 °F 92% 29.58 in 3.0 mi SSW 5.8 mph - N/A Rain Light Rain
7:16 PM 32.7 °F 29.6 °F 31.8 °F 96% 29.57 in 1.8 mi SSW 3.5 mph - N/A Snow Light Snow
7:36 PM 32.4 °F - 31.8 °F 98% 29.57 in 2.5 mi Calm Calm - N/A Snow Light Snow
7:56 PM 32.5 °F - 32.0 °F 98% 29.56 in 2.0 mi Calm Calm - 0.01 in Snow Light Snow
8:16 PM 32.5 °F 29.3 °F 32.0 °F 98% 29.55 in 4.0 mi SW 3.5 mph - N/A Snow Light Snow
8:36 PM 32.4 °F 29.1 °F 32.0 °F 99% 29.55 in 2.5 mi SW 3.5 mph - N/A Snow Light Snow
8:56 PM 32.5 °F - 32.0 °F 98% 29.55 in 5.0 mi Calm Calm - N/A Snow Light Snow
9:16 PM 32.9 °F 29.8 °F 32.0 °F 96% 29.55 in 7.0 mi WSW 3.5 mph - N/A   Overcast
9:36 PM 32.9 °F 26.7 °F 32.0 °F 96% 29.55 in 10.0 mi West 6.9 mph - N/A   Overcast
9:56 PM 33.1 °F 26.9 °F 32.0 °F 96% 29.55 in 10.0 mi West 6.9 mph - N/A   Overcast
10:16 PM 32.9 °F 25.9 °F 32.0 °F 96% 29.55 in 10.0 mi West 8.1 mph - N/A   Overcast
10:36 PM 33.1 °F 25.5 °F 32.0 °F 96% 29.55 in 10.0 mi West 9.2 mph - N/A   Overcast
10:56 PM 33.1 °F 25.5 °F 32.0 °F 96% 29.55 in 7.0 mi WNW 9.2 mph - N/A   Light Drizzle
11:16 PM 32.9 °F 25.3 °F 32.0 °F 96% 29.55 in 5.0 mi WNW 9.2 mph - N/A Rain Light Rain
11:36 PM 32.9 °F 24.7 °F 31.8 °F 96% 29.56 in 3.0 mi WNW 10.4 mph - N/A Snow Light Snow
11:56 PM 32.4 °F 24.6 °F 31.6 °F 97% 29.57 in 2.0 mi NW 9.2 mph - N/A Snow Light Snow